EHI
0 1 4 5 5 4 2 1 0 0 0 1 1 2 3 2 1 1 1 1 2 2 2 1 1 2 3 3 1 0 0 0 0 0 0 0 0 0 0 0 0 0 0
1 2 4 6 6 6 5 2 1 0 0 1 1 2 3 3 2 2 2 2 2 2 1 1 2 2 3 3 2 1 1 1 1 1 0 0 0 0 0 0 0 0 0
3 4 6 8 9 10 8 4 2 1 0 0 1 2 3 3 4 3 1 1 1 1 0 1 1 2 3 3 3 3 2 2 2 2 1 1 1 1 0 0 0 0 0
4 7 10 12 13 13 10 6 3 2 1 0 2 2 3 3 4 2 1 0 0 0 0 0 0 1 2 3 3 3 3 3 3 3 3 2 2 1 0 0 0 0 0
6 10 14 15 17 17 14 9 5 3 2 3 5 6 4 3 3 2 1 0 0 0 0 0 0 1 1 3 3 3 3 3 3 3 3 3 2 1 0 0 0 0 0
8 12 16 18 21 22 20 15 9 6 5 6 7 7 6 4 3 2 1 0 0 0 1 1 2 2 3 5 5 4 4 3 3 3 3 3 2 1 0 0 0 0 0
10 13 17 20 23 25 24 20 16 11 8 7 6 6 5 5 6 5 2 1 1 1 2 3 3 3 5 6 6 6 5 4 3 3 3 3 2 1 1 1 0 0 0
10 12 17 21 24 27 27 26 22 16 12 9 8 6 6 6 6 5 3 3 3 4 4 5 4 4 4 5 6 6 6 4 3 3 3 3 2 1 1 1 0 0 0
8 10 15 20 24 28 31 30 25 18 15 13 11 8 6 6 6 5 5 5 5 5 6 6 6 5 4 5 6 6 6 6 5 5 4 3 1 0 1 1 0 0 0
9 11 16 22 25 29 33 31 24 19 18 17 14 10 7 5 5 5 5 6 5 5 6 7 8 8 7 6 7 7 7 8 8 7 6 4 2 1 1 1 0 0 0
12 15 21 26 29 31 33 31 25 22 22 21 18 14 9 6 3 3 4 4 4 4 6 8 9 9 8 7 8 9 8 9 10 9 7 5 4 3 2 2 1 1 1
15 18 22 27 28 30 33 33 29 26 25 24 22 19 15 9 5 3 2 2 2 4 7 9 10 10 9 8 9 10 10 10 9 8 7 6 5 4 3 3 3 3 3
16 17 18 20 23 28 34 37 34 30 28 26 24 23 18 13 9 7 5 4 4 7 9 11 11 10 9 9 10 11 11 11 8 7 6 6 6 5 4 4 4 5 5
16 14 13 14 18 26 35 39 36 33 30 27 24 22 18 12 10 10 9 8 9 11 13 12 12 11 10 8 8 8 9 8 6 6 6 6 6 6 6 6 6 6 6
20 16 12 13 18 26 34 37 36 33 30 27 25 21 15 10 9 10 12 12 12 13 14 13 12 12 10 6 5 5 6 6 5 5 6 7 7 6 6 6 6 6 6
20 18 15 15 18 24 29 33 33 31 29 28 25 21 14 11 11 12 13 15 15 15 15 15 13 12 9 6 3 3 4 4 5 5 6 8 8 7 6 5 5 4 4
17 17 15 15 19 23 24 27 29 29 27 25 23 18 14 11 12 13 14 16 17 17 17 17 15 13 10 5 2 1 2 4 4 4 6 7 8 8 7 5 3 2 2
12 13 13 14 19 21 20 20 23 25 23 21 19 16 14 13 12 11 13 15 17 18 19 18 17 16 11 6 2 0 1 3 3 3 4 6 7 7 6 5 2 2 2
8 10 12 15 18 19 17 16 19 21 20 18 18 17 17 17 13 11 11 13 15 17 17 16 17 17 13 6 1 0 2 4 4 3 3 3 4 3 3 2 1 1 1
5 8 11 14 16 18 18 18 20 20 19 19 20 21 21 19 16 14 14 15 15 14 13 12 14 16 12 6 1 2 6 8 7 4 1 1 1 1 0 0 0 0 0
4 7 10 13 15 17 19 21 21 20 18 17 20 21 20 16 15 16 17 18 16 13 11 9 10 11 9 5 1 2 8 11 10 6 2 0 0 0 0 0 0 0 0
4 5 8 11 12 14 16 17 17 15 14 14 15 16 15 12 12 14 16 17 17 15 12 9 8 7 6 4 1 1 4 9 11 9 4 1 0 0 0 0 0 0 0
5 5 6 9 10 11 11 11 10 9 9 9 9 10 10 9 9 11 13 14 15 15 13 11 9 7 6 5 3 1 1 4 7 7 4 1 0 0 0 0 0 0 0
6 6 7 9 9 9 8 7 6 5 6 6 6 6 6 7 8 10 11 11 12 13 14 14 13 11 9 7 6 3 1 2 3 3 2 0 0 0 0 0 0 0 0
9 9 9 9 9 9 7 5 4 3 4 4 5 5 5 6 6 6 6 7 9 11 13 13 14 13 10 7 7 5 3 2 1 1 0 0 0 0 0 0 0 0 0
10 11 10 10 10 9 8 5 4 3 2 2 3 5 6 6 4 2 2 3 7 9 11 11 12 12 9 7 6 5 4 2 1 0 0 0 0 0 0 0 0 0 0
Wind_Speed
8 7 8 9 8 7 8 8 7 6 5 3 3 3 3 2 2 3 4 5 4 4 4 3 3 3 3 3 3 1 1 1 1 0 2 2 2 2 2 2 3 4 4
7 8 9 9 10 10 9 8 8 7 7 5 3 3 2 2 2 2 3 4 4 5 5 4 3 3 3 3 3 2 1 1 1 1 0 2 3 2 1 1 2 3 2
12 11 11 11 10 11 11 10 9 8 7 6 3 2 1 0 1 2 2 3 4 4 4 5 4 4 4 3 4 4 4 2 1 2 2 1 2 3 2 2 1 1 1
11 11 11 11 12 12 10 9 9 8 7 7 5 5 4 4 4 3 3 3 3 4 4 4 4 4 4 4 4 4 3 3 2 2 2 2 2 1 2 2 2 2 2
12 12 13 13 11 10 9 8 7 7 6 7 8 7 5 4 2 2 3 3 3 3 4 4 4 4 4 4 4 3 4 3 3 3 2 2 1 2 2 3 3 2 2
12 11 10 9 8 9 8 8 7 6 6 7 7 7 7 5 4 4 3 3 2 2 3 3 4 4 3 4 4 4 4 4 4 3 3 3 2 3 3 3 3 2 2
10 10 10 10 10 10 10 9 9 8 8 8 8 7 7 6 6 5 4 4 3 2 3 3 3 3 4 4 4 4 4 4 4 4 3 3 3 2 3 2 2 2 1
9 10 11 11 11 12 11 11 11 10 9 9 8 6 6 5 4 5 4 4 4 4 3 3 3 4 4 4 4 3 4 3 4 5 4 3 3 3 3 3 2 2 1
9 10 10 11 11 12 12 12 12 10 9 9 8 6 6 5 5 5 4 3 3 3 3 4 4 3 3 4 4 3 4 3 4 4 4 3 2 2 3 2 2 2 2
5 7 8 10 10 10 10 9 10 10 8 8 7 6 6 6 5 4 4 4 4 3 3 4 4 4 4 4 4 4 4 4 4 3 3 3 2 2 2 2 2 3 3
4 5 6 7 7 7 8 9 8 7 7 7 7 6 6 6 5 4 5 4 4 4 4 4 4 4 4 4 4 4 4 4 4 3 4 4 3 3 2 2 2 2 3
3 4 5 5 6 7 7 7 7 8 8 7 7 6 5 5 5 5 5 4 4 4 5 4 4 5 4 4 5 5 5 5 5 5 5 5 3 3 2 2 2 3 3
3 3 5 5 6 6 6 6 6 6 6 7 6 5 4 5 5 5 5 4 5 5 5 4 4 4 4 4 4 5 5 5 5 5 5 5 4 4 3 3 3 2 2
3 4 4 4 5 5 5 5 5 5 5 5 5 4 4 4 5 5 5 5 5 5 4 4 4 4 4 4 4 4 4 5 4 4 5 5 5 5 4 4 4 3 3
3 3 3 2 3 4 4 4 4 4 4 5 5 5 4 4 4 4 5 4 4 4 4 4 4 4 4 4 4 4 5 5 4 4 4 5 6 6 5 4 4 4 3
2 2 2 3 4 5 5 5 4 4 4 5 5 4 4 4 5 5 4 4 4 4 4 4 4 4 4 5 7 6 5 5 5 5 4 4 5 6 6 7 6 6 5
1 2 2 2 3 4 5 5 4 4 4 3 3 3 3 3 3 3 3 4 3 4 4 4 4 5 6 7 8 8 6 5 5 5 4 4 4 5 4 5 5 5 6
1 1 1 2 2 3 4 4 4 5 5 4 3 4 4 3 3 3 3 3 3 3 3 4 5 5 5 7 8 8 6 5 6 6 6 5 5 5 5 5 4 3 3
2 2 2 2 2 2 3 4 4 4 4 4 4 4 4 3 3 3 4 3 3 3 3 3 4 5 5 7 8 7 5 4 5 5 5 6 6 6 7 5 5 3 2
1 1 1 2 1 1 3 4 3 3 3 4 4 3 3 4 4 5 4 3 3 3 3 4 4 5 5 6 7 7 4 4 4 4 4 6 6 7 8 6 5 5 4
2 0 1 1 2 2 3 3 2 2 3 2 2 2 2 3 4 4 3 3 3 2 2 3 3 3 4 4 6 7 5 5 5 4 4 4 7 7 8 7 5 6 4
1 1 2 1 1 2 3 3 1 2 1 1 1 1 2 2 2 2 2 2 2 3 3 3 3 3 3 4 5 7 8 6 6 5 4 4 7 7 7 6 5 6 5
2 1 2 1 0 1 3 3 3 2 1 1 1 1 1 1 1 2 2 2 2 3 3 3 4 3 2 3 5 6 7 7 5 4 5 5 7 7 5 5 6 6 4
1 1 2 1 1 1 1 3 3 2 2 2 2 2 1 2 2 2 2 2 3 3 3 4 4 3 3 3 3 3 3 4 4 3 3 4 5 4 4 4 4 3 3
0 1 2 2 2 1 2 2 2 3 3 3 3 2 2 2 2 2 2 3 4 5 5 5 4 4 5 4 5 4 4 3 3 2 2 2 2 3 3 3 3 3 3
1 1 2 2 2 2 2 3 2 3 3 3 3 3 3 2 2 2 3 3 5 6 7 8 7 5 6 5 5 5 6 6 6 4 3 3 4 4 4 4 3 3 3
Wind_Direction
209 192 188 183 176 178 183 188 189 184 168 162 171 182 208 213 216 219 216 208 206 201 196 209 203 193 201 212 204 194 210 237 196 331 320 312 291 271 255 247 242 244 245
198 194 189 184 184 186 188 190 194 186 183 184 175 173 179 199 209 219 215 209 207 204 206 205 205 200 201 210 202 184 178 228 162 156 21 334 334 326 309 262 240 249 247
202 198 192 191 189 192 192 194 194 189 189 182 153 128 109 90 184 215 221 221 212 209 210 206 202 201 198 214 216 194 190 207 208 184 167 173 260 308 321 319 294 281 266
202 195 191 192 195 198 193 192 188 188 187 175 174 180 191 206 213 206 212 223 214 213 209 205 201 203 199 212 224 208 196 189 210 208 211 201 186 221 317 322 323 319 301
199 196 196 195 194 190 186 186 183 187 184 182 186 190 205 212 209 205 216 222 220 218 213 201 198 204 205 210 215 206 201 196 200 197 192 198 194 198 216 284 311 324 312
199 199 196 186 186 183 180 176 176 185 182 185 190 194 202 203 201 210 216 222 220 222 218 202 200 206 208 212 212 209 208 208 205 202 196 186 185 195 199 236 268 289 299
195 191 186 185 185 183 183 179 179 187 186 187 193 196 202 201 207 211 211 213 214 219 220 210 204 207 210 210 203 202 210 207 205 208 212 210 214 190 182 205 242 263 286
191 192 191 191 189 186 185 182 183 188 186 190 197 197 199 201 212 212 204 207 210 218 211 205 209 213 211 212 200 203 213 208 212 216 208 210 218 204 197 196 198 243 271
194 195 190 190 189 188 188 185 182 185 188 192 191 192 197 202 208 208 203 206 206 212 204 205 212 216 212 208 199 210 214 206 211 216 209 210 214 207 212 207 199 204 241
196 192 188 190 189 190 183 176 178 184 187 186 189 196 199 203 202 195 200 204 211 211 202 209 211 213 214 207 202 212 216 208 211 204 200 206 209 203 205 204 199 202 208
191 188 184 179 172 170 171 174 177 174 179 184 189 195 200 200 197 202 208 206 208 208 210 209 210 214 217 210 205 215 211 213 214 202 199 210 200 197 201 192 188 192 192
174 165 154 147 155 163 168 172 175 178 182 185 190 199 201 194 198 210 212 202 208 212 212 210 214 222 221 210 207 214 211 211 214 209 199 207 197 201 203 195 196 199 195
130 124 129 145 155 158 158 161 170 180 178 177 182 193 204 200 205 212 212 206 211 212 209 206 216 225 221 214 215 214 211 212 213 207 204 206 195 204 204 203 205 205 197
131 131 137 152 152 149 153 158 161 162 159 157 167 181 203 217 220 216 213 211 210 209 208 206 214 216 214 215 219 214 214 216 214 209 206 204 202 207 208 207 206 195 187
92 112 132 136 131 133 141 150 154 157 155 155 173 185 191 200 228 232 225 211 210 214 209 204 209 212 212 217 215 213 212 209 211 214 214 211 205 205 202 200 199 192 189
92 98 116 137 150 149 150 153 154 156 155 173 189 189 190 193 206 222 223 214 209 209 204 207 209 213 222 225 215 209 210 206 205 212 216 214 209 206 203 203 197 192 192
134 119 134 156 165 158 157 159 156 149 161 179 182 192 193 198 212 223 223 225 217 210 211 215 214 221 225 217 214 210 204 203 207 208 205 212 212 200 202 199 198 206 209
157 151 163 167 175 158 152 159 154 165 171 173 187 198 192 196 200 205 222 228 220 218 217 221 224 230 233 214 209 205 205 207 210 208 204 204 207 205 195 184 185 203 218
214 209 191 163 165 160 150 155 164 167 175 185 201 205 196 199 202 216 228 228 219 221 219 227 225 227 238 221 209 198 204 212 217 213 207 204 207 203 184 176 182 191 212
259 219 121 103 139 143 131 143 154 158 191 204 211 206 198 206 216 225 225 219 212 224 225 233 232 231 238 226 215 201 204 211 219 220 215 207 203 189 179 182 186 195 203
267 166 117 141 187 156 129 134 147 190 212 201 187 188 199 218 219 221 217 209 211 216 229 247 256 253 252 238 219 206 210 214 214 218 220 213 193 185 184 186 195 201 184
254 189 161 184 193 148 138 146 192 225 190 164 182 212 212 234 238 211 220 219 215 226 238 246 264 261 251 238 229 218 219 218 215 220 218 207 185 186 189 192 194 176 160
224 192 163 158 192 168 162 175 214 204 159 134 197 256 267 266 246 221 227 234 227 231 244 246 254 265 260 253 241 227 222 218 222 225 207 192 184 179 185 190 178 166 168
202 163 146 153 228 232 205 212 214 191 169 193 225 235 244 268 266 245 233 235 237 238 241 242 247 254 253 247 244 230 221 218 220 221 191 177 174 176 176 173 176 179 185
281 138 157 185 227 242 241 234 214 182 186 209 225 235 236 237 255 265 250 237 239 231 230 237 235 235 246 237 222 217 216 212 208 187 172 168 170 180 183 184 187 187 184
231 164 188 208 231 231 247 256 240 199 194 217 227 229 232 235 240 252 286 284 256 249 236 234 234 246 248 238 223 218 218 209 186 170 186 194 195 198 196 193 197 200 201